Weather History for Eastover, SC

Change the Weather History Date:

Monday, March 25, 2013

  Actual Average Record
Temperature  
Mean Temperature 44 °F -  
Max Temperature 50 °F 67 °F 80 °F (2002)
Min Temperature 39 °F 47 °F 34 °F (2008)
Degree Days  
Heating Degree Days 20    
Moisture  
Dew Point 32 °F    
Average Humidity 67    
Maximum Humidity 100    
Minimum Humidity 35    
Precipitation  
Precipitation 0.01 in - - ()
Sea Level Pressure  
Sea Level Pressure 29.72 in    
Wind  
Wind Speed 9 mph (WSW)    
Max Wind Speed 28 mph    
Max Gust Speed 38 mph    
Visibility 10 miles    
Events      
Averages and records for this station are not official NWS values.
T = Trace of Precipitation, MM = Missing Value Source: NWS Daily Summary

Daily Weather History Graph

Daily Weather History Graph

Search for Another Location

Airport:

Trip Planner

Search our weather history database for the weather conditions in past years. The results will help you decide how hot, cold, wet, or windy it might be!

Date:

Astronomy

Mar. 25, 2013 Rise Set
Actual Time 7:19 AM EDT 7:38 PM EDT
Civil Twilight 6:54 AM EDT 8:03 PM EDT
Nautical Twilight 6:25 AM EDT 8:33 PM EDT
Astronomical Twilight 5:55 AM EDT 9:02 PM EDT
Moon 6:11 PM EDT (3/25) 5:58 AM EDT (3/25)
Length of Visible Light 13h 09m
Length of Day
12h 19m
Waxing Gibbous, 96% of the Moon is Illuminated
Mar 25
Waxing Gibbous
Mar 27
Full
Apr 3
Last Quarter
Apr 10
New
Apr 18
First Quarter

Hourly Weather History & Observations

Time (EDT) Temp. Windchill Dew Point Humidity Pressure Visibility Wind Dir Wind Speed Gust Speed Precip Events Conditions
12:03 AM 42.8 °F - 41.0 °F 93% 29.60 in 10.0 mi Calm Calm - N/A   Overcast
12:23 AM 42.8 °F - 41.0 °F 93% 29.59 in 10.0 mi Calm Calm - N/A   Overcast
12:33 AM 42.8 °F 41.1 °F 41.0 °F 93% 29.60 in 10.0 mi NW 3.5 mph - N/A   Overcast
12:43 AM 42.8 °F 41.1 °F 41.0 °F 93% 29.61 in 10.0 mi West 3.5 mph - N/A   Overcast
12:58 AM 43.5 °F 40.9 °F 41.9 °F 94% 29.63 in 10.0 mi West 4.6 mph - N/A   Overcast
1:58 AM 43.5 °F 41.9 °F 42.4 °F 96% 29.63 in 10.0 mi WSW 3.5 mph - N/A   Overcast
2:23 AM 42.8 °F 40.1 °F 42.8 °F 100% 29.63 in 10.0 mi South 4.6 mph - N/A   Overcast
2:33 AM 42.8 °F - 42.8 °F 100% 29.63 in 10.0 mi SSW 2.3 mph - N/A   Overcast
2:53 AM 42.8 °F 41.1 °F 42.8 °F 100% 29.62 in 10.0 mi SSW 3.5 mph - N/A   Mostly Cloudy
2:58 AM 42.8 °F 40.1 °F 42.8 °F 100% 29.63 in 10.0 mi SSW 4.6 mph - N/A   Overcast
3:03 AM 42.8 °F 41.1 °F 42.8 °F 100% 29.62 in 10.0 mi SW 3.5 mph - N/A   Overcast
3:08 AM 42.8 °F 41.1 °F 42.8 °F 100% 29.62 in 10.0 mi SW 3.5 mph - N/A   Overcast
3:38 AM 42.8 °F 35.8 °F 42.8 °F 100% 29.61 in 10.0 mi WSW 13.8 mph - N/A   Scattered Clouds
3:58 AM 44.6 °F 37.8 °F 41.2 °F 88% 29.62 in 10.0 mi West 15.0 mph 19.6 mph N/A   Scattered Clouds
4:58 AM 42.8 °F 35.4 °F 33.3 °F 69% 29.63 in 10.0 mi WSW 15.0 mph 20.7 mph N/A   Clear
5:58 AM 41.7 °F 34.4 °F 30.6 °F 65% 29.65 in 10.0 mi West 13.8 mph 26.5 mph N/A   Partly Cloudy
6:58 AM 41.4 °F 33.6 °F 30.2 °F 65% 29.67 in 10.0 mi WSW 15.0 mph 23.0 mph 0.01 in   Clear
7:58 AM 41.7 °F 33.7 °F 27.9 °F 58% 29.69 in 10.0 mi West 16.1 mph 27.6 mph N/A   Partly Cloudy
8:58 AM 43.9 °F 36.5 °F 27.3 °F 52% 29.71 in 10.0 mi West 16.1 mph 24.2 mph N/A   Partly Cloudy
9:58 AM 45.3 °F 36.3 °F 26.8 °F 48% 29.72 in 10.0 mi West 26.5 mph 35.7 mph N/A   Partly Cloudy
10:58 AM 46.4 °F 38.5 °F 26.4 °F 46% 29.74 in 10.0 mi West 21.9 mph 35.7 mph N/A   Mostly Cloudy
11:58 AM 46.9 °F - 25.9 °F 44% 29.76 in 10.0 mi West 25.3 mph 36.8 mph N/A   Mostly Cloudy
12:58 PM 48.2 °F - 24.6 °F 40% 29.77 in 10.0 mi West 24.2 mph 32.2 mph N/A   Mostly Cloudy
1:58 PM 48.7 °F - 23.4 °F 37% 29.76 in 10.0 mi West 20.7 mph 34.5 mph N/A   Mostly Cloudy
2:58 PM 49.5 °F - 24.3 °F 37% 29.76 in 10.0 mi West 23.0 mph 38.0 mph N/A   Scattered Clouds
3:58 PM 49.1 °F - 22.6 °F 35% 29.75 in 10.0 mi West 27.6 mph 34.5 mph N/A   Scattered Clouds
4:58 PM 48.6 °F - 21.9 °F 35% 29.78 in 10.0 mi West 24.2 mph 31.1 mph N/A   Scattered Clouds
5:58 PM 48.7 °F - 21.7 °F 35% 29.80 in 10.0 mi West 18.4 mph 38.0 mph N/A   Scattered Clouds
6:58 PM 46.4 °F 39.5 °F 21.2 °F 37% 29.84 in 10.0 mi West 17.3 mph 27.6 mph N/A   Scattered Clouds
7:58 PM 44.6 °F 36.9 °F 21.2 °F 39% 29.87 in 10.0 mi West 18.4 mph 28.8 mph N/A   Scattered Clouds
8:58 PM 43.0 °F 35.7 °F 20.7 °F 41% 29.90 in 10.0 mi West 15.0 mph 25.3 mph N/A   Partly Cloudy
9:58 PM 41.2 °F 34.1 °F 21.9 °F 46% 29.94 in 10.0 mi West 12.7 mph 25.3 mph N/A   Partly Cloudy
10:58 PM 40.3 °F 32.6 °F 20.8 °F 46% 29.96 in 10.0 mi West 13.8 mph 21.9 mph N/A   Partly Cloudy
11:58 PM 39.2 °F 32.0 °F 21.0 °F 48% 29.97 in 10.0 mi West 11.5 mph - N/A   Clear